Flight Track Log - Related Links

Times and Time Zones

All times are in EDT time to prevent confusion due to time zone crossing. See the SWA2396 flight status page for this flight to view local times or setup timezone preferences in your user account.

Time Position Orientation Groundspeed Altitude Reporting Facility
EDT Latitude Longitude Course Direction KTS MPH feet Rate Location/Type
Wed 01:13:39 PM 34.1989 -118.4608 280° West 253 291 7,700  Level Los Angeles Center
Wed 01:14:41 PM 34.2661 -118.5061 331° Northwest 276 318 11,800 4,355 Climbing Los Angeles Center
Wed 01:15:43 PM 34.3500 -118.5611 332° Northwest 287 330 16,700 4,065 Climbing Los Angeles Center
Wed 01:16:45 PM 34.4269 -118.6111 332° Northwest 315 362 20,200 3,242 Climbing Los Angeles Center
Wed 01:17:47 PM 34.5064 -118.6631 332° Northwest 326 375 23,400 2,880 Climbing Los Angeles Center
Wed 01:18:50 PM 34.5894 -118.7194 331° Northwest 341 392 26,200 1,872 Climbing Los Angeles Center
Wed 01:19:52 PM 34.6831 -118.7825 331° Northwest 382 440 27,300 1,403 Climbing Los Angeles Center
Wed 01:20:54 PM 34.8114 -118.8667 332° Northwest 435 501 29,100 1,984 Climbing Los Angeles Center
Wed 01:21:56 PM 34.9233 -118.9153 340° North 456 525 31,400 2,274 Climbing Los Angeles Center
Wed 01:22:58 PM 35.0403 -118.9672 340° North 450 518 33,800 2,129 Climbing Los Angeles Center
Wed 01:24:00 PM 35.1553 -119.0197 340° North 446 513 35,800 1,065 Climbing Los Angeles Center
Wed 01:25:02 PM 35.2736 -119.0711 340° North 451 519 36,000 242 Climbing Los Angeles Center
Wed 01:26:04 PM 35.4108 -119.1331 340° North 444 511 36,300 1,104 Climbing Los Angeles Center
Wed 01:27:07 PM 35.5189 -119.1828 339° North 428 493 38,300 1,584 Climbing Los Angeles Center
Wed 01:28:09 PM 35.6292 -119.2328 340° North 425 489 39,600 1,010 Climbing Los Angeles Center
Wed 01:28:48 PM 35.6969 -119.2642 339° North 429 494 40,000 240 Climbing Oakland Center
Wed 01:29:49 PM 35.8319 -119.3258 340° North 433 498 40,000  Level Oakland Center
Wed 01:30:50 PM 35.9461 -119.3792 339° North 437 503 40,000  Level Oakland Center
Wed 01:31:52 PM 36.0556 -119.4333 338° Northwest 430 495 40,000  Level Oakland Center
Wed 01:32:53 PM 36.1611 -119.5022 332° Northwest 430 495 40,000  Level Oakland Center
Wed 01:33:55 PM 36.2658 -119.5733 331° Northwest 432 497 40,000  Level Oakland Center
Wed 01:34:56 PM 36.3711 -119.6414 333° Northwest 428 493 40,000 -49 Level Oakland Center
Wed 01:35:57 PM 36.4753 -119.7114 332° Northwest 427 491 39,900 -49 Descending Oakland Center
Wed 01:36:59 PM 36.6000 -119.7947 332° Northwest 424 488 39,900  Level Oakland Center
Wed 01:38:00 PM 36.7019 -119.8653 331° Northwest 422 486 39,900 -98 Level Oakland Center
Wed 01:39:01 PM 36.8044 -119.9325 332° Northwest 416 479 39,700 -585 Descending Oakland Center
Wed 01:40:03 PM 36.9061 -120.0014 332° Northwest 417 480 38,700 -1,366 Descending Oakland Center
Wed 01:41:04 PM 37.0103 -120.0722 332° Northwest 426 490 36,900 -2,390 Descending Oakland Center
Wed 01:42:06 PM 37.1086 -120.1386 332° Northwest 428 493 33,800 -3,707 Descending Oakland Center
Wed 01:43:07 PM 37.2372 -120.2269 331° Northwest 440 506 29,300 -3,738 Descending Oakland Center
Wed 01:44:08 PM 37.3433 -120.2986 332° Northwest 430 495 26,200 -2,748 Descending Oakland Center
Wed 01:45:18 PM 37.4667 -120.3833 331° Northwest 415 478 23,300 -1,754 Descending Northern Cal TRACON
Wed 01:46:18 PM 37.5500 -120.4667 322° Northwest 405 466 22,400 -900 Descending Northern Cal TRACON
Wed 01:47:18 PM 37.6333 -120.5667 316° Northwest 399 459 21,500 -879 Descending Northern Cal TRACON
Wed 01:48:14 PM 37.7058 -120.6303 325° Northwest 391 450 20,700 -1,000 Descending Oakland Center
Wed 01:49:18 PM 37.8000 -120.7333 319° Northwest 380 437 19,500 -1,068 Descending Northern Cal TRACON
Wed 01:50:12 PM 37.8833 -120.8000 328° Northwest 376 433 18,600 -947 Descending Northern Cal TRACON
Wed 01:51:12 PM 37.9667 -120.8833 322° Northwest 371 427 17,700 -905 Descending Northern Cal TRACON
Wed 01:52:18 PM 38.0333 -120.9667 315° West 368 423 16,700 -1,116 Descending Northern Cal TRACON
Wed 01:53:21 PM 38.1161 -121.0633 317° Northwest 355 409 15,300 -1,368 Descending Oakland Center
Wed 01:54:12 PM 38.1667 -121.1333 313° West 329 379 14,100 -1,243 Descending Northern Cal TRACON
Wed 01:55:12 PM 38.2167 -121.2167 307° West 308 354 13,000 -1,144 Descending Northern Cal TRACON
Wed 01:57:26 PM 38.3383 -121.3942 311° West 291 335 10,400 -1,293 Descending Oakland Center
Wed 01:58:13 PM 38.3833 -121.4500 316° Northwest 279 321 9,100 -1,426 Descending Northern Cal TRACON
Wed 01:59:07 PM 38.4333 -121.5167 314° West 271 312 8,000 -1,368 Descending Northern Cal TRACON
Wed 02:00:07 PM 38.4833 -121.5833 314° West 257 296 6,500 -1,600 Descending Northern Cal TRACON
Wed 02:01:07 PM 38.5500 -121.6333 330° Northwest 270 311 4,800 -1,412 Descending Northern Cal TRACON
Wed 02:01:32 PM 38.5619 -121.6433 327° Northwest 266 306 4,500 -698 Descending Oakland Center
Wed 02:02:33 PM 38.6236 -121.6794 335° Northwest 253 291 3,800 -634 Descending Oakland Center
Wed 02:03:35 PM 38.6867 -121.6825 358° North 231 266 3,200 -537 Descending Oakland Center
Wed 02:04:36 PM 38.7419 -121.6792 North 207 238 2,700 -885 Descending Oakland Center
Wed 02:05:37 PM 38.7561 -121.6242 72° East 178 205 1,400 -1,319 Descending Oakland Center
Wed 02:06:07 PM 38.7333 -121.6000 140° Southeast 139 160 700 -847 Descending Northern Cal TRACON
Wed 02:07:02 PM 38.7167 -121.6000 180° South 123 142 200 -545 Descending Northern Cal TRACON

Login

Don't have an account? Register now (free) for customized features, flight alerts, and more!